Wind_Speed
4 4 4 4 4 5 4 5 4 5 6 6 6 7 6 6 6 7 7 7 7 7 7 8 8 8 8 8 8 8 8 7 7 7 7 6 5 5 5 4 4 5 5 5 6 6 5 4 4
5 5 5 5 5 5 5 5 5 6 6 6 6 6 6 7 7 7 7 7 8 8 7 8 8 8 9 9 9 9 9 8 8 8 8 7 7 6 6 5 5 6 6 6 6 7 6 5 5
6 6 6 6 6 6 6 6 6 6 6 7 7 6 7 7 8 8 8 8 8 8 8 8 8 9 9 10 10 10 9 9 9 8 9 8 7 7 7 6 6 7 7 7 7 7 7 7 7
6 6 6 6 5 7 8 7 7 8 7 7 7 7 7 8 8 9 9 9 9 9 9 8 9 9 10 10 10 11 11 10 9 8 8 8 8 8 7 7 7 7 8 7 7 7 8 8 8
6 7 6 6 6 7 7 7 8 8 8 8 8 8 8 8 8 8 9 9 9 9 9 9 9 10 9 9 9 10 10 9 9 8 8 9 9 8 8 8 8 8 8 8 8 8 8 9 9
7 6 7 7 7 8 8 8 8 8 8 9 9 9 9 9 8 8 8 9 9 10 10 10 9 9 9 8 8 8 8 8 8 8 9 8 9 9 9 9 8 8 9 9 9 9 9 9 10
6 6 7 7 8 8 8 8 8 9 9 9 9 9 9 9 8 8 9 9 9 9 9 9 9 8 8 8 7 7 7 8 8 8 8 9 9 9 9 9 9 9 9 9 9 9 9 10 10
7 7 7 8 9 9 8 8 9 9 10 10 10 9 8 9 9 9 9 9 8 8 8 9 9 8 8 8 7 8 8 8 8 9 9 9 9 9 9 9 9 9 9 9 10 10 10 10 10
7 7 7 7 8 9 9 10 10 10 10 10 10 10 9 10 10 10 10 10 9 9 9 9 8 8 8 8 8 8 8 9 9 10 10 10 9 9 9 9 9 8 9 9 10 10 10 11 11
8 8 8 8 9 9 9 10 10 10 11 11 10 10 10 10 10 10 10 11 11 10 10 9 8 8 8 8 9 9 9 10 10 11 11 11 10 10 10 9 9 9 9 10 11 11 12 12 12
8 8 9 9 10 10 10 10 10 10 11 11 11 10 10 11 11 11 10 11 11 10 10 9 9 9 9 9 9 10 9 9 10 10 11 11 11 11 10 10 10 10 11 11 12 12 12 13 13
9 9 10 10 10 10 10 10 10 10 11 11 11 11 11 12 11 11 11 10 11 11 11 10 9 10 10 10 10 10 9 10 11 11 11 11 11 11 11 11 11 11 12 12 13 13 13 13 13
9 9 10 10 10 10 11 11 11 11 12 12 12 12 11 11 11 11 11 11 11 11 11 10 10 10 10 10 10 11 10 10 11 11 11 10 10 11 12 12 12 12 13 13 14 14 14 14 14
9 10 10 11 11 12 12 12 12 12 13 13 13 13 12 11 11 11 11 11 11 11 11 11 11 11 11 11 11 11 11 11 10 11 10 10 10 11 12 13 13 13 14 14 15 15 15 15 15
10 10 10 11 11 12 13 13 13 13 13 14 14 13 13 13 13 12 12 12 12 12 12 12 12 12 12 12 12 12 12 12 12 11 11 11 11 12 14 14 14 15 15 15 15 15 15 15 16
10 11 11 11 12 12 13 12 12 13 13 13 13 13 13 13 13 12 12 12 12 12 12 12 13 13 13 13 13 13 13 13 13 13 12 12 13 13 14 15 15 15 16 16 15 15 15 15 15
10 11 12 12 12 12 13 13 13 13 13 14 13 13 13 12 12 12 12 12 12 12 12 13 13 14 14 14 14 14 14 14 14 14 14 14 13 14 14 15 15 16 16 15 15 15 15 15 15
10 11 12 12 12 13 14 14 13 13 13 13 13 14 13 12 12 13 13 13 13 13 13 13 13 14 14 14 14 14 14 14 14 14 14 14 14 14 14 15 15 15 15 15 16 16 16 15 15
11 11 12 13 13 14 14 15 14 14 14 14 14 14 14 14 13 13 14 14 14 14 14 13 13 13 13 13 14 14 14 14 14 14 14 14 14 14 14 14 15 15 16 16 16 17 17 17 16
11 12 13 13 13 14 14 15 15 14 15 15 14 14 15 15 14 14 14 15 14 14 14 14 13 13 13 13 14 14 14 14 14 14 14 14 15 15 15 15 16 16 16 17 18 18 18 18 18
12 12 12 13 14 15 15 15 16 15 15 15 15 16 16 16 15 15 15 15 14 14 14 14 13 14 14 14 14 15 15 15 15 15 15 15 15 16 16 16 17 17 18 18 18 18 19 19 19
12 12 12 13 14 15 14 16 16 16 16 16 16 17 17 16 16 16 15 15 15 15 15 14 14 14 15 15 15 15 16 15 15 16 16 16 16 17 17 18 18 18 19 19 19 19 19 20 19
13 13 13 13 13 14 15 17 17 16 16 17 18 17 17 17 16 16 16 16 16 15 15 15 15 15 15 15 15 16 16 16 16 16 17 17 17 17 18 18 18 19 19 19 19 18 19 19 19
13 13 14 14 14 14 14 16 17 17 17 18 18 18 18 18 18 17 17 17 17 16 16 16 16 16 16 16 16 16 16 16 17 17 17 17 18 18 18 19 19 19 19 19 19 18 19 19 20
13 13 14 14 14 15 14 17 18 18 18 18 18 18 18 19 19 18 18 18 18 17 16 16 17 17 17 17 16 16 16 16 17 17 18 18 18 19 19 19 19 19 19 19 19 19 20 20 21
14 14 14 14 13 14 15 18 19 19 19 18 19 19 19 20 20 19 19 19 18 18 18 18 17 17 17 17 16 17 17 17 18 18 19 18 19 19 20 20 20 20 20 20 20 20 21 22 22
15 15 14 14 14 14 15 17 20 20 19 19 19 20 20 20 20 20 20 19 19 19 19 18 18 18 18 18 18 18 18 19 19 19 20 20 20 21 21 22 22 22 22 21 21 22 22 23 23
15 15 15 15 15 16 16 16 19 19 19 19 20 20 21 20 21 21 21 20 20 20 20 19 19 20 19 19 19 19 19 19 20 21 21 21 22 23 23 23 23 23 23 23 23 23 23 24 24
15 16 16 16 16 17 17 19 20 21 21 21 21 20 21 21 22 22 21 21 21 22 22 21 20 21 21 22 22 21 21 21 22 22 22 23 23 23 24 24 24 24 25 25 25 25 26 26 26
16 16 16 17 17 18 18 19 20 21 21 21 21 21 21 22 22 21 21 21 22 22 23 23 23 23 23 23 23 23 23 24 24 23 24 24 25 26 25 25 26 26 26 26 27 27 27 27 27
Wind_Direction
216 231 227 219 219 222 231 235 228 227 224 227 235 239 237 243 242 241 243 247 249 249 252 258 256 257 260 263 263 261 256 255 253 249 250 251 251 251 252 253 246 253 259 259 261 265 268 264 252
230 238 235 227 225 230 241 246 241 239 237 237 243 247 246 248 246 245 247 251 254 256 257 261 261 263 262 263 266 263 256 255 254 250 249 249 252 257 258 254 256 261 267 268 266 264 261 261 256
240 239 240 236 232 236 243 249 245 246 250 252 251 253 255 256 255 254 255 260 260 261 263 266 266 267 264 264 264 260 255 253 251 249 250 250 252 257 259 261 262 266 268 267 266 263 260 260 258
243 238 235 236 236 240 245 253 249 250 252 256 258 260 262 264 261 260 261 263 265 266 268 269 270 269 268 268 265 260 255 251 252 253 251 247 248 253 257 262 265 267 270 272 269 262 267 266 261
242 239 235 238 241 245 250 256 257 254 254 255 259 262 265 271 270 263 262 266 267 268 267 269 270 270 271 274 274 262 252 251 254 255 255 252 250 256 258 258 264 267 269 270 270 271 270 272 267
247 240 236 240 241 248 255 258 263 265 266 264 263 265 265 271 269 268 269 269 269 268 266 268 270 270 269 272 272 260 249 248 252 254 260 261 260 259 262 263 265 270 271 269 268 271 271 269 269
250 244 240 246 247 252 258 259 264 267 266 266 268 270 268 268 267 266 269 271 273 273 269 266 271 272 270 266 261 256 247 249 256 258 262 264 260 258 261 262 265 271 274 273 271 271 271 270 271
252 246 243 247 250 255 256 256 262 265 268 268 270 272 270 268 271 271 271 270 272 272 270 267 268 269 269 265 258 254 252 255 260 263 266 267 264 259 259 262 266 269 273 274 275 275 274 273 274
256 255 249 254 259 260 261 259 260 264 266 265 267 269 270 272 274 274 272 269 267 267 268 266 265 263 266 269 269 267 264 264 265 266 267 267 267 267 265 267 268 270 272 274 275 277 278 275 274
256 264 261 260 262 264 265 265 262 261 262 263 264 269 270 271 272 271 271 270 268 265 264 261 261 263 267 269 271 273 272 272 273 271 267 267 268 268 268 266 269 272 274 276 278 279 279 278 277
257 260 259 262 264 266 270 270 266 263 263 261 263 266 267 269 271 269 270 269 269 268 267 266 265 267 270 272 275 275 274 278 280 280 275 270 268 268 268 265 268 271 275 278 279 280 280 281 281
258 257 258 262 263 264 267 268 268 266 266 268 269 269 265 265 266 269 270 269 271 272 272 270 271 270 270 274 276 275 274 279 281 283 284 279 271 267 269 268 270 271 275 279 281 280 281 282 283
261 261 261 262 265 266 266 265 265 266 266 267 269 269 265 267 268 270 272 276 275 276 273 272 276 277 277 278 276 281 276 278 280 282 282 278 270 266 267 270 271 272 274 277 280 279 281 282 282
264 265 265 264 267 268 268 267 266 267 266 266 268 269 266 267 270 271 272 274 274 277 275 276 278 280 282 283 282 285 283 282 283 281 279 275 269 270 268 271 272 273 276 277 277 278 279 280 280
266 267 267 268 268 268 269 268 269 267 265 265 268 268 267 269 272 275 276 277 278 277 276 274 276 277 280 281 281 285 286 286 286 285 281 278 274 272 270 272 274 274 277 278 277 276 278 279 280
268 272 273 273 271 271 271 271 271 268 264 265 266 267 269 270 272 275 277 278 278 277 275 274 276 278 280 280 281 284 284 287 286 285 284 283 280 278 275 274 274 275 277 279 279 278 279 279 280
274 276 275 273 274 274 273 274 276 271 267 266 267 268 271 271 271 273 274 274 275 277 277 275 276 280 281 281 281 282 283 285 286 284 283 283 281 281 280 278 278 278 278 279 281 281 281 281 281
275 277 276 274 275 276 275 273 275 275 273 271 269 269 269 270 272 273 273 273 273 273 274 276 278 280 282 283 282 283 285 285 286 286 283 282 283 283 282 280 278 277 278 280 283 284 285 283 283
275 275 274 275 272 273 275 274 273 274 273 271 270 269 271 274 273 273 274 274 275 274 275 276 279 282 284 284 284 285 287 286 287 287 285 286 286 284 283 280 278 277 278 281 283 284 286 285 283
276 276 277 278 273 273 273 273 271 272 274 274 271 271 271 273 273 272 274 275 276 279 277 275 277 279 281 281 283 286 288 288 288 287 287 286 286 285 282 279 278 279 281 282 284 283 284 284 284
276 276 277 276 275 274 275 273 272 272 273 273 271 271 272 273 273 272 274 277 278 278 276 275 277 278 279 282 285 287 288 290 291 288 286 286 287 285 284 283 281 281 282 283 283 284 285 285 285
274 279 277 276 277 277 276 275 275 276 274 272 272 272 271 271 271 271 274 276 276 277 277 274 275 277 279 282 284 286 287 288 288 288 287 288 288 287 286 284 283 281 281 282 282 283 284 285 284
276 278 277 278 281 282 279 277 277 279 276 274 273 272 271 270 271 270 273 274 273 274 275 274 274 277 279 281 283 285 287 288 288 288 289 289 290 289 288 287 285 284 283 283 284 284 286 285 284
275 273 275 280 284 284 282 280 279 276 278 276 274 273 270 269 269 270 272 272 271 270 271 272 272 274 276 280 283 284 286 288 289 289 288 288 288 288 287 287 287 286 285 284 283 284 286 285 284
270 272 276 278 280 285 283 277 277 277 277 276 274 270 270 270 271 270 270 272 271 268 268 272 274 273 274 276 280 282 284 287 288 289 289 290 289 289 287 286 285 283 283 283 281 283 285 285 285
268 268 270 271 271 276 279 275 278 279 277 275 273 270 270 271 271 269 269 270 268 268 271 273 274 274 273 274 277 281 283 286 286 287 288 289 290 290 288 287 286 284 283 283 282 283 285 285 285
270 270 272 274 272 270 274 281 281 279 279 276 274 271 271 272 270 269 268 268 267 268 269 269 272 271 270 273 276 280 283 285 287 287 286 288 288 289 289 288 287 285 284 282 282 282 285 286 285
265 268 267 265 267 268 268 270 276 282 281 278 277 275 271 271 269 268 268 267 267 267 268 268 268 271 273 274 276 280 282 283 284 285 285 285 286 288 288 289 286 285 283 282 281 282 284 285 285
265 264 264 266 268 268 269 269 276 279 280 279 276 275 273 272 270 269 269 267 267 267 268 268 269 272 272 274 276 278 282 283 284 285 285 286 286 287 288 289 287 285 283 281 281 282 283 285 285
266 267 266 265 265 266 267 268 275 274 275 276 276 277 275 272 271 271 271 268 267 268 268 268 269 271 273 274 276 279 282 284 285 284 286 286 286 287 287 288 287 285 283 282 282 282 283 283 283
Height
5851 5851 5852 5853 5854 5854 5854 5855 5855 5856 5857 5857 5857 5858 5859 5860 5862 5864 5863 5862 5863 5863 5863 5863 5864 5864 5864 5864 5864 5864 5864 5864 5864 5864 5864 5865 5865 5865 5866 5866 5866 5866 5867 5867 5867 5867 5866 5865 5865
5851 5851 5853 5853 5854 5854 5854 5854 5855 5856 5856 5856 5857 5858 5858 5859 5860 5860 5860 5861 5862 5862 5862 5862 5862 5862 5862 5862 5862 5862 5862 5862 5862 5863 5863 5864 5864 5864 5865 5865 5865 5866 5866 5866 5866 5866 5866 5866 5865
5850 5851 5852 5853 5853 5853 5853 5854 5854 5855 5855 5856 5856 5857 5858 5858 5859 5859 5860 5860 5860 5861 5861 5861 5861 5861 5861 5861 5860 5860 5860 5860 5861 5861 5862 5862 5863 5863 5864 5864 5864 5864 5865 5865 5865 5865 5865 5865 5865
5850 5851 5851 5852 5852 5852 5852 5853 5853 5854 5854 5855 5856 5856 5856 5857 5858 5858 5858 5859 5859 5859 5859 5859 5859 5859 5859 5858 5857 5857 5858 5858 5859 5860 5860 5861 5862 5862 5863 5863 5863 5863 5863 5864 5864 5864 5864 5864 5864
5848 5849 5850 5850 5851 5851 5852 5852 5852 5853 5853 5854 5855 5855 5855 5856 5857 5857 5857 5857 5857 5858 5858 5858 5858 5857 5856 5855 5854 5853 5855 5857 5858 5858 5859 5860 5860 5861 5861 5862 5862 5862 5862 5862 5862 5863 5863 5863 5863
5847 5848 5849 5849 5850 5850 5850 5851 5851 5852 5852 5852 5853 5854 5854 5855 5855 5855 5855 5856 5856 5856 5856 5856 5856 5855 5855 5853 5852 5851 5853 5855 5856 5857 5858 5858 5859 5859 5859 5860 5860 5861 5861 5861 5861 5861 5861 5861 5861
5847 5847 5847 5848 5848 5849 5849 5850 5850 5850 5851 5851 5852 5852 5853 5853 5853 5853 5854 5854 5854 5854 5854 5854 5854 5854 5853 5853 5852 5851 5853 5854 5855 5855 5856 5856 5857 5857 5858 5858 5859 5859 5859 5859 5859 5859 5859 5859 5859
5844 5846 5845 5846 5846 5847 5848 5848 5849 5849 5849 5850 5850 5851 5851 5852 5852 5852 5852 5852 5852 5852 5852 5853 5853 5853 5852 5852 5852 5852 5853 5853 5854 5854 5854 5855 5855 5855 5856 5856 5857 5857 5857 5857 5857 5857 5858 5857 5857
5843 5845 5844 5845 5845 5845 5846 5847 5847 5847 5848 5848 5848 5849 5850 5850 5850 5850 5850 5850 5850 5850 5851 5851 5851 5851 5851 5851 5851 5852 5852 5852 5852 5853 5853 5853 5853 5853 5854 5854 5855 5855 5855 5856 5855 5855 5855 5855 5855
5841 5842 5843 5843 5843 5844 5844 5845 5845 5846 5846 5846 5847 5847 5848 5848 5848 5848 5848 5848 5848 5849 5849 5849 5849 5849 5850 5850 5850 5850 5851 5851 5851 5851 5850 5850 5851 5851 5851 5852 5853 5853 5853 5854 5853 5853 5853 5853 5853
5840 5840 5841 5841 5841 5842 5842 5843 5843 5844 5844 5845 5845 5845 5845 5846 5846 5846 5846 5847 5847 5847 5847 5847 5847 5848 5848 5848 5848 5849 5849 5849 5849 5848 5848 5848 5848 5848 5849 5850 5851 5851 5851 5851 5851 5851 5851 5851 5850
5838 5838 5839 5839 5839 5840 5841 5841 5842 5842 5842 5843 5843 5843 5844 5844 5844 5844 5844 5844 5845 5845 5845 5845 5845 5846 5846 5846 5846 5847 5847 5847 5847 5846 5845 5844 5844 5845 5847 5848 5848 5849 5849 5849 5849 5849 5848 5848 5848
5836 5836 5837 5837 5837 5838 5838 5839 5839 5840 5840 5840 5841 5841 5841 5841 5841 5842 5842 5842 5843 5843 5843 5843 5843 5843 5844 5844 5844 5845 5845 5845 5844 5844 5843 5842 5842 5843 5844 5845 5846 5846 5846 5846 5846 5846 5845 5845 5845
5834 5834 5834 5835 5835 5836 5836 5837 5837 5838 5838 5838 5838 5839 5839 5839 5839 5839 5840 5840 5840 5841 5841 5841 5841 5842 5842 5842 5842 5842 5843 5843 5842 5842 5841 5841 5841 5841 5842 5843 5843 5843 5843 5843 5843 5843 5842 5842 5842
5831 5832 5832 5833 5833 5833 5834 5835 5835 5835 5835 5836 5836 5836 5837 5837 5837 5837 5838 5838 5838 5838 5838 5839 5839 5839 5840 5840 5840 5840 5840 5840 5840 5840 5840 5839 5839 5839 5839 5840 5840 5840 5840 5840 5840 5839 5839 5839 5838
5829 5830 5830 5831 5830 5831 5832 5832 5833 5832 5833 5833 5833 5833 5834 5834 5835 5835 5835 5836 5836 5836 5836 5836 5837 5837 5837 5837 5838 5838 5838 5838 5837 5838 5837 5837 5837 5837 5837 5837 5837 5837 5837 5837 5836 5836 5836 5836 5835
5827 5827 5828 5829 5828 5828 5829 5829 5830 5830 5830 5830 5831 5831 5832 5832 5833 5833 5833 5833 5833 5833 5833 5834 5834 5834 5834 5835 5835 5835 5835 5835 5835 5834 5834 5834 5834 5834 5834 5834 5834 5833 5833 5833 5833 5833 5833 5832 5832
5825 5826 5826 5826 5826 5826 5826 5827 5827 5827 5827 5828 5828 5828 5829 5829 5830 5830 5830 5830 5831 5830 5830 5831 5832 5832 5832 5832 5832 5832 5832 5831 5831 5831 5831 5831 5831 5830 5830 5830 5830 5830 5830 5830 5830 5830 5829 5829 5828
5823 5823 5823 5823 5823 5823 5823 5824 5824 5824 5825 5825 5825 5826 5826 5826 5827 5827 5827 5827 5827 5827 5828 5828 5829 5829 5829 5829 5829 5829 5829 5828 5828 5828 5828 5828 5828 5827 5827 5827 5827 5827 5827 5826 5826 5826 5826 5825 5825
5821 5821 5821 5821 5821 5820 5820 5821 5821 5821 5822 5822 5823 5823 5823 5824 5824 5825 5824 5824 5824 5825 5825 5825 5826 5826 5826 5826 5826 5826 5825 5825 5825 5825 5824 5824 5824 5824 5824 5824 5824 5823 5823 5823 5822 5822 5822 5821 5821
5818 5818 5818 5818 5818 5817 5817 5818 5818 5818 5819 5819 5820 5820 5820 5821 5821 5821 5821 5821 5821 5822 5822 5822 5822 5823 5823 5823 5823 5822 5822 5822 5821 5821 5821 5821 5820 5820 5820 5820 5820 5820 5819 5819 5819 5818 5818 5817 5817
5815 5815 5815 5814 5814 5814 5815 5814 5814 5814 5815 5816 5816 5817 5817 5817 5818 5818 5818 5818 5818 5818 5819 5819 5819 5819 5819 5819 5819 5819 5819 5819 5818 5818 5817 5817 5817 5816 5816 5816 5816 5815 5815 5815 5814 5814 5813 5813 5812
5812 5812 5812 5812 5811 5811 5812 5811 5811 5810 5811 5812 5813 5813 5813 5814 5814 5814 5815 5815 5815 5815 5815 5816 5816 5816 5816 5816 5816 5815 5815 5815 5815 5814 5814 5813 5813 5812 5811 5811 5811 5810 5810 5810 5809 5809 5808 5808 5807
5809 5809 5809 5808 5808 5808 5809 5808 5807 5807 5807 5808 5809 5809 5809 5810 5811 5811 5811 5811 5811 5811 5811 5812 5812 5812 5812 5812 5812 5811 5811 5811 5810 5810 5810 5809 5808 5808 5807 5806 5806 5805 5805 5805 5804 5804 5803 5803 5802
5805 5806 5805 5804 5804 5805 5806 5805 5805 5804 5804 5804 5805 5805 5805 5806 5806 5807 5807 5807 5807 5807 5808 5808 5808 5808 5808 5808 5808 5807 5807 5807 5806 5806 5805 5805 5804 5803 5802 5802 5801 5801 5800 5800 5799 5799 5798 5798 5797
5802 5802 5802 5802 5802 5802 5802 5800 5801 5801 5801 5800 5800 5800 5801 5801 5802 5802 5803 5803 5803 5803 5803 5804 5804 5804 5804 5804 5804 5803 5803 5803 5802 5801 5801 5800 5799 5799 5798 5797 5796 5796 5795 5794 5794 5793 5793 5792 5791
5798 5798 5799 5799 5798 5798 5798 5797 5796 5796 5796 5796 5796 5796 5797 5797 5797 5798 5798 5799 5799 5799 5799 5799 5800 5799 5799 5799 5799 5799 5798 5798 5797 5797 5795 5795 5794 5793 5792 5791 5791 5790 5789 5788 5788 5787 5787 5786 5785
5795 5795 5795 5794 5794 5794 5795 5794 5792 5791 5792 5792 5791 5791 5792 5792 5792 5793 5793 5794 5794 5794 5794 5795 5795 5794 5794 5794 5794 5794 5793 5793 5792 5791 5791 5790 5789 5788 5786 5785 5784 5784 5783 5782 5782 5781 5780 5779 5778
5790 5791 5790 5790 5790 5790 5790 5792 5789 5788 5787 5787 5787 5787 5787 5787 5787 5787 5788 5788 5788 5789 5789 5789 5789 5789 5789 5789 5788 5788 5787 5787 5786 5786 5784 5783 5782 5781 5780 5779 5778 5777 5776 5775 5774 5774 5773 5772 5771
5785 5786 5786 5786 5786 5786 5786 5788 5784 5783 5782 5781 5781 5782 5782 5782 5782 5782 5782 5782 5783 5783 5783 5783 5784 5783 5783 5783 5782 5782 5781 5781 5780 5779 5777 5776 5775 5774 5772 5771 5770 5769 5768 5767 5766 5766 5765 5764 5763